Location: Poughquag
(41.6090°N, 73.6820°W)
Time: 11:15:09
(UTC-04:00)

Transit 2A Rocket - Pass Details

Date: 03 June 2020
Orbit: 584 x 919 km, 66.7° (Epoch: 06 July)

Event Time Altitude Azimuth Distance (km) Brightness Sun altitude
Rises 06:23:20 0° 334° (NNW) 3,506 8.4 9.4°
Reaches altitude 10° 06:26:00 10° 342° (NNW) 2,590 7.8 9.9°
Maximum altitude 06:31:41 40° 51° (NE) 1,336 7.4 10.9°
Drops below altitude 10° 06:37:22 10° 120° (ESE) 2,597 8.4 11.9°
Sets 06:40:02 0° 128° (SE) 3,516 8.9 12.4°
